Regional Weather Roundup
Issued by NWS

Home | Current Version | Previous Version | Graphics & Text | Print | Product List | Glossary On
Versions: 1 2 3 4 5 6 7 8 9 10 11 12 13 14 15 16 17 18 19 20 21 22 23 24 25 26 27 28 29 30 31 32 33 34 35 36 37 38 39 40 41 42 43 44 45 46 47 48 49 50
000
ASUS43 KIND 070009
RWRIN

WEATHER ROUNDUP FOR INDIANA
NATIONAL WEATHER SERVICE INDIANAPOLIS IN
700 PM EST SAT FEB 06 2016

NOTE: "FAIR" INDICATES FEW OR NO CLOUDS BELOW 12,000 FEET WITH NO
SIGNIFICANT WEATHER AND/OR OBSTRUCTIONS TO VISIBILITY.

* - STATION DOES NOT REPORT WEATHER SUCH AS PRECIPITATION OR FOG.

+ - STATION NOT QUALITY CONTROLLED BY THE NATIONAL WEATHER SERVICE.
    USE DATA WITH CAUTION...ESPECIALLY DEWPOINT AND RELATIVE
    HUMIDITY OBSERVATIONS.

INZ001>003-010>013-019-020-070100-
NORTHWEST INDIANA

CITY           SKY/WX    TMP DP  RH WIND       PRES   REMARKS
GARY /AIRPORT/ PTCLDY    36  27  69 SW10      30.17S
LA PORTE +     CLEAR     33  29  87 CALM      30.18R
6HR MIN TEMP:  33; 6HR MAX TEMP:  41;

MICHIGAN CITY+ CLEAR     36  28  75 S3        30.18R
MONTICELLO +   CLEAR     37  24  59 S3        30.18F
6HR MIN TEMP:  37; 6HR MAX TEMP:  42;

RENSSELAER +   CLEAR     36  28  75 S5        30.18S
VALPARAISO     CLEAR     36  28  73 CALM      30.17F
6HR MIN TEMP:  33; 6HR MAX TEMP:  41;


$$

LMZ046-743>745-070100-
SOUTHERN LAKE MICHIGAN

STATION/POSITION TIME  TEMP    WIND        PRES    WAVE
                       AIR SEA DIR/SP/G            HT
                 (UTC) (F)     (DEG/KT/KT) (MB)    (FT)
BURNS HARBOR     2300   39     210/  7/ 12 1022.0F
MICHIGAN CITY    2300   39     180/ 10/ 12   N/A

$$

INZ004-005-014>016-021>024-070100-
NORTH CENTRAL INDIANA

CITY           SKY/WX    TMP DP  RH WIND       PRES   REMARKS
GOSHEN         PTCLDY    35  27  72 SW8       30.17F WCI  29
6HR MIN TEMP:  34; 6HR MAX TEMP:  39;

LOGANSPORT +   CLEAR     32  27  80 S5        30.20S WCI  27
PERU/GRISSOM   CLEAR     34  27  77 S5        30.18F WCI  30
6HR MIN TEMP:  33; 6HR MAX TEMP:  42;

ROCHESTER +    CLEAR     37  27  65 CALM      30.19S
SOUTH BEND     CLEAR     34  26  72 SW7       30.18S WCI  28
6HR MIN TEMP:  34; 6HR MAX TEMP:  39;

WARSAW +       CLEAR     34  27  75 CALM      30.19S

$$

INZ006>009-017-018-025>027-070100-
NORTHEAST INDIANA

CITY           SKY/WX    TMP DP  RH WIND       PRES   REMARKS
AUBURN +       CLEAR     34  25  69 S3        30.20S
FORT WAYNE     PTCLDY    31  26  82 SW8       30.21S WCI  23
6HR MIN TEMP:  31; 6HR MAX TEMP:  39;

HUNTINGTON +   CLEAR     34  23  63 CALM      30.20S
6HR MIN TEMP:  34; 6HR MAX TEMP:  40;


$$

INZ028-029-035-036-043>045-051>053-070100-
WEST CENTRAL INDIANA

CITY           SKY/WX    TMP DP  RH WIND       PRES   REMARKS
GREENCASTLE +  CLEAR     39  19  45 CALM      30.22S
LAFAYETTE      CLEAR     39  27  62 CALM      30.19F
6HR MIN TEMP:  39; 6HR MAX TEMP:  43;

TERRE HAUTE    CLEAR     39  26  59 S5        30.21F
6HR MIN TEMP:  39; 6HR MAX TEMP:  48;


$$

INZ030>032-037>040-046>048-054>057-064-065-070100-
CENTRAL INDIANA

CITY           SKY/WX    TMP DP  RH WIND       PRES   REMARKS
FRANKFORT +    CLEAR     35  22  59 S5        30.21F WCI  31
6HR MIN TEMP:  35; 6HR MAX TEMP:  44;

GREENWOOD *+   CLEAR     39  27  60 S3        30.23S
INDIANAPOLIS   CLEAR     40  23  50 S7        30.21S
6HR MIN TEMP:  38; 6HR MAX TEMP:  46;

-EAGLE CREEK   CLEAR     40  24  53 CALM      30.21S
6HR MIN TEMP:  39; 6HR MAX TEMP:  45;

KOKOMO *+        N/A     34  23  64 S6        30.20S WCI  29
6HR MIN TEMP:  34; 6HR MAX TEMP:  43;

MARION +       CLEAR     33  21  60 S6        30.21S WCI  28
MT COMFORT *+  CLEAR     36  27  69 S5        30.22F
SHELBYVILLE    CLEAR     36  26  67 SE3       30.22F
6HR MIN TEMP:  36; 6HR MAX TEMP:  46;

ZIONSVILLE +   CLEAR     34  26  72 S5        30.21F WCI  30
6HR MIN TEMP:  34; 6HR MAX TEMP:  42;


$$

INZ033-034-041-042-049-050-058-059-070100-
EAST CENTRAL INDIANA

CITY           SKY/WX    TMP DP  RH WIND       PRES   REMARKS
MUNCIE         CLEAR     38  26  62 S6        30.21S
6HR MIN TEMP:  37; 6HR MAX TEMP:  43;


$$

INZ060-061-067>069-081>083-085>088-070100-
SOUTHWEST INDIANA

CITY           SKY/WX    TMP DP  RH WIND       PRES   REMARKS
EVANSVILLE     CLEAR     47  23  38 CALM      30.26S
6HR MIN TEMP:  47; 6HR MAX TEMP:  55;

HUNTINGBURG *+ CLEAR     45  27  49 S6        30.26S
6HR MIN TEMP:  43; 6HR MAX TEMP:  52;

WASHINGTON +   CLEAR     38  31  73 S5        30.24S
6HR MIN TEMP:  38; 6HR MAX TEMP:  51;


$$

INZ062-063-066-070>080-084-089>092-070100-
SOUTH CENTRAL AND SOUTHEAST INDIANA

CITY           SKY/WX    TMP DP  RH WIND       PRES   REMARKS
BLOOMINGTON    CLEAR     38  25  59 CALM      30.23S
6HR MIN TEMP:  37; 6HR MAX TEMP:  49;

MADISON *+     CLEAR     37  25  60 CALM      30.27S
SEYMOUR +      CLEAR     37  27  65 CALM      30.25S

$$




USA.gov is the U.S. government's official web portal to all federal, state and local government web resources and services.